{"data":{"norad_id":64816,"epoch":"2026-09-21T21:19:08.956704Z","epoch_age_seconds":54522,"freshness":"FRESH","line1":"1 64816U 25151A   26264.88829811  .00000867  00000+0  14278-3 0  9999","line2":"2 64816  51.9023 133.0648 0000858 105.5476 254.5581 14.79928141 65817","mean_motion":14.79928141,"eccentricity":8.58e-5,"inclination_deg":51.9023,"raan_deg":133.0648,"arg_perigee_deg":105.5476,"mean_anomaly_deg":254.5581,"bstar":0.00014278,"rev_number":6581,"period_min":97.302021639171,"perigee_km":628.94970824825,"apogee_km":630.15222750354,"semimajor_km":7007.6879678759,"source":"CELESTRAK","updated_at":"2026-09-22T09:00:29.973179Z"}}